This is the latest recevied weather packets stored in our database for station/object K2YYD-2. If no packets are shown the sender has not sent any weather packets the latest 10 day(s).
| Time | Temp. | Humidity | Pressure | Rain* | Wind** | Luminosity | Snow |
|---|---|---|---|---|---|---|---|
| 1777660105 | 17.78° C | 35% | 1007.7 hPa | 0 mm | - | 709 W/m² | - |
| 1777659984 | 17.78° C | 35% | 1007.7 hPa | 0 mm | - | 838 W/m² | - |
| 1777659865 | 17.22° C | 35% | 1007.7 hPa | 0 mm | - | 723 W/m² | - |
| 1777659746 | 17.22° C | 37% | 1007.8 hPa | 0 mm | - | 782 W/m² | - |
| 1777659622 | 17.22° C | 38% | 1007.7 hPa | 0 mm | - | 915 W/m² | - |
| 1777659502 | 16.67° C | 36% | 1007.7 hPa | 0 mm | - | 675 W/m² | - |
| 1777659382 | 16.67° C | 36% | 1007.8 hPa | 0 mm | - | 890 W/m² | - |
| 1777659262 | 16.67° C | 36% | 1007.7 hPa | 0 mm | - | 978 W/m² | - |
| 1777659142 | 17.22° C | 36% | 1007.7 hPa | 0 mm | - | 1001 W/m² | - |
| 1777659023 | 17.22° C | 36% | 1007.7 hPa | 0 mm | - | 1005 W/m² | - |
| 1777658902 | 17.22° C | 35% | 1007.7 hPa | 0 mm | - | 1006 W/m² | - |
| 1777658780 | 17.22° C | 36% | 1007.7 hPa | 0 mm | - | 1011 W/m² | - |
| 1777658660 | 17.22° C | 36% | 1007.7 hPa | 0 mm | - | 909 W/m² | - |
| 1777658540 | 17.22° C | 35% | 1007.7 hPa | 0 mm | - | 835 W/m² | - |
| 1777658419 | 17.22° C | 36% | 1007.8 hPa | 0 mm | - | 622 W/m² | - |
| 1777658299 | 17.22° C | 37% | 1007.8 hPa | 0 mm | - | 649 W/m² | - |
| 1777658181 | 17.22° C | 37% | 1007.7 hPa | 0 mm | - | 831 W/m² | - |
| 1777658059 | 17.22° C | 36% | 1007.7 hPa | 0 mm | - | 827 W/m² | - |
| 1777657941 | 17.22° C | 37% | 1007.8 hPa | 0 mm | - | 539 W/m² | - |
| 1777657820 | 17.22° C | 36% | 1007.8 hPa | 0 mm | - | 328 W/m² | - |
| 1777657732 | 17.22° C | 35% | 1007.9 hPa | 0 mm | - | 495 W/m² | - |
| 1777657580 | 17.22° C | 36% | 1007.9 hPa | 0 mm | - | 592 W/m² | - |
| 1777657460 | 17.22° C | 37% | 1007.9 hPa | 0 mm | - | 553 W/m² | - |
| 1777657341 | 16.67° C | 39% | 1007.9 hPa | 0 mm | - | 434 W/m² | - |
| 1777657219 | 16.67° C | 36% | 1007.9 hPa | 0 mm | - | 203 W/m² | - |
* Rain latest hour (hover to see other rain measurements)
** Current wind speed in m/s (hover to see current wind gust speed)